User: anonymous   Login
Location: Moydans
(44.3997°N, 5.5038°E)
Time: 21:37:39
(UTC+02:00)
Language:

Tiangong - Orbit

View from above orbital plane
View from above orbital plane
View from above satellite
View from above satellite

Ground track
Ground track

The orbit data is extracted from the following two-line orbital elements,

1 48274U 21035A   21292.59712431  .00004670  00000-0  56824-4 0  9990
2 48274  41.4704 244.3332 0002196 244.7105 283.6765 15.61519086 27153
Epoch (UTC): 19 October 2021 14:19:51
Eccentricity: 0.0002196
inclination: 41.4704°
perigee height: 382 km
apogee height: 385 km
right ascension of ascending node: 244.3332°
argument of perigee: 244.7105°
revolutions per day: 15.61519086
mean anomaly at epoch: 283.6765°
orbit number at epoch: 2715

The dashed part of the orbit path shows where the satellite is in the earth's shadow,  

DLR